Content
SEND FEEDBACK

Daily
Averages
Monthly
Summary
United States of America

NEW PALTZ, NEW YORK


Home > North America > United States > New York
Elevation: 1243 feet     Latitude: 41 08N     Longitude: 074 33W

WEATHER
 
SELECT A DAY
Number of Records: 178,861;   Date Range: 1/1/95 - 11/24/14
 
SHARE

PRINT THIS DATA

[ ← Previous Day ]
WEATHER ALMANAC - JULY 22, 2014
[ Next Day → ]
[ °C ]   °F
Weather ElementAverageHighLow
Temperature75.2 °F84.9 °F (2:56 pm)66 °F (1:56 am)
Dewpoint64.8 °F66.9 °F (10:56 am)62.1 °F (1:56 am)
Humidity71.2 %87 % (1:56 am)53 % (1:56 pm)
Barometer30.11 in30.17 in (7:56 am)30.03 in (11:56 pm)
Wind Speed4.5 mph12.7 mph (5:56 pm)
Wind Gust17.3 mph (3:56 pm)
Weather ElementAverage
Visibility9.8 mi
Wind DirectionESE (118.2 °)

Weather ElementTotal
Precipitation---
Cooling Degree Days10.5 (Base 65)
Growing Degree Days25.5 (Base 50)
Averaged from 22 records on July 22, 2014
WEATHER CONDITIONS BREAKOUT
WIND DIRECTION BREAKOUT
WEATHER BY HOUR - JULY 22, 2014
[ °C ]   °F
Local TimeTemperatureDewpointHumidityBarometerVisibilityWind DirectionWind SpeedGust SpeedPrecipitationEventsConditions
1:56 AM66.0 °F62.1 °F87 %30.15 in10.0 miCalmClear
2:56 AM68.0 °F62.1 °F81 %30.15 in10.0 miCalmClear
3:56 AM66.9 °F62.1 °F84 %30.14 in10.0 miWest (270°)3.5 mphClear
4:56 AM66.9 °F63.0 °F87 %30.15 in10.0 miCalmClear
5:56 AM66.9 °F63.0 °F87 %30.16 in8.0 miNW (310°)3.5 mphClear
6:56 AM68.0 °F64.0 °F87 %30.16 in9.0 miWest (270°)3.5 mphClear
7:56 AM71.1 °F64.9 °F81 %30.17 in9.0 miWest (280°)4.6 mphClear
8:56 AM75.0 °F64.9 °F71 %30.16 in10.0 miWest (270°)4.6 mphClear
9:56 AM78.1 °F66.0 °F66 %30.14 in10.0 miVariable4.6 mphClear
10:56 AM81.0 °F66.9 °F62 %30.14 in10.0 miVariable3.5 mphPartly Cloudy
11:56 AM82.0 °F66.0 °F58 %30.13 in10.0 miVariable6.9 mphPartly Cloudy
1:56 PM84.0 °F64.9 °F53 %30.11 in10.0 miCalmScattered Clouds
2:56 PM84.9 °F66.0 °F53 %30.09 in10.0 miCalmScattered Clouds
3:56 PM82.9 °F66.9 °F58 %30.06 in10.0 miSouth (170°)11.5 mph17.3 mphScattered Clouds
4:56 PM82.0 °F66.9 °F60 %30.06 in10.0 miSouth (180°)9.2 mphScattered Clouds
5:56 PM81.0 °F66.9 °F62 %30.05 in10.0 miSouth (170°)12.7 mph17.3 mphPartly Cloudy
6:56 PM79.0 °F64.9 °F62 %30.06 in10.0 miSouth (170°)6.9 mphPartly Cloudy
7:56 PM75.9 °F64.9 °F69 %30.06 in10.0 miSouth (170°)8.1 mphPartly Cloudy
8:56 PM73.4 °F64.4 °F73 %30.07 in10.0 miSouth (170°)4.6 mphClear
9:56 PM73.9 °F64.9 °F73 %30.04 in10.0 miSouth (170°)4.6 mphClear
10:56 PM73.0 °F66.0 °F79 %30.04 in10.0 miVariable3.5 mphClear
11:56 PM73.9 °F64.9 °F73 %30.03 in10.0 miVariable3.5 mphClear
Hourly data recorded from KHPN, located miles away from New Paltz, New York







STORIES FROM OUR PARTNERS